TimeAKST,TemperatureF,Dew PointF,Humidity,Sea Level PressureIn,VisibilityMPH,Wind Direction,Wind SpeedMPH,Gust SpeedMPH,PrecipitationIn,Events,Conditions,WindDirDegrees,DateUTC
12:16 AM,39.2,30.2,70,29.29,10.0,SSE,11.5,-,N/A,,Clear,160,2013-11-04 09:16:00
12:36 AM,39.2,30.2,70,29.29,10.0,SSE,11.5,-,N/A,,Clear,150,2013-11-04 09:36:00
12:56 AM,39.2,30.2,70,29.29,10.0,SSE,11.5,-,N/A,,Clear,150,2013-11-04 09:56:00
1:16 AM,39.2,30.2,70,29.28,10.0,SSE,10.4,-,N/A,,Clear,150,2013-11-04 10:16:00
1:36 AM,39.2,30.2,70,29.28,10.0,SSE,13.8,-,N/A,,Clear,150,2013-11-04 10:36:00
1:56 AM,39.2,30.2,70,29.28,10.0,SSE,10.4,-,N/A,,Clear,150,2013-11-04 10:56:00
2:16 AM,39.2,30.2,70,29.27,10.0,SSE,10.4,-,N/A,,Mostly Cloudy,160,2013-11-04 11:16:00
2:36 AM,41.0,30.2,65,29.27,10.0,SSE,8.1,-,N/A,,Overcast,150,2013-11-04 11:36:00
2:56 AM,41.0,30.2,65,29.28,10.0,SSE,9.2,-,N/A,,Overcast,150,2013-11-04 11:56:00
3:16 AM,39.2,30.2,70,29.28,10.0,ENE,5.8,-,N/A,,Overcast,70,2013-11-04 12:16:00
3:36 AM,39.2,30.2,70,29.28,10.0,East,8.1,-,N/A,,Overcast,90,2013-11-04 12:36:00
3:56 AM,39.2,30.2,70,29.28,10.0,East,8.1,-,N/A,,Overcast,90,2013-11-04 12:56:00
4:16 AM,41.0,30.2,65,29.27,10.0,East,8.1,-,N/A,,Overcast,100,2013-11-04 13:16:00
4:36 AM,41.0,30.2,65,29.27,10.0,East,5.8,-,N/A,,Overcast,90,2013-11-04 13:36:00
4:56 AM,42.8,30.2,61,29.27,10.0,East,5.8,-,N/A,,Overcast,100,2013-11-04 13:56:00
5:16 AM,41.0,30.2,65,29.27,10.0,SE,3.5,-,N/A,,Overcast,140,2013-11-04 14:16:00
5:36 AM,41.0,30.2,65,29.27,10.0,Calm,Calm,-,N/A,,Overcast,0,2013-11-04 14:36:00
5:56 AM,41.0,30.2,65,29.27,10.0,NE,3.5,-,N/A,,Overcast,50,2013-11-04 14:56:00
6:16 AM,41.0,30.2,65,29.27,10.0,Calm,Calm,-,N/A,,Overcast,0,2013-11-04 15:16:00
6:36 AM,41.0,30.2,65,29.28,10.0,WSW,5.8,-,N/A,,Overcast,240,2013-11-04 15:36:00
6:56 AM,39.2,32.0,75,29.28,10.0,West,5.8,-,N/A,,Overcast,270,2013-11-04 15:56:00
7:16 AM,39.2,33.8,81,29.28,9.0,SW,3.5,-,N/A,,Overcast,230,2013-11-04 16:16:00
7:36 AM,39.2,33.8,81,29.29,10.0,Calm,Calm,-,0.02,,Overcast,0,2013-11-04 16:36:00
7:56 AM,39.2,33.8,81,29.29,10.0,SW,5.8,-,0.05,,Overcast,220,2013-11-04 16:56:00
8:16 AM,39.2,33.8,81,29.30,10.0,SW,8.1,-,0.01,,Overcast,220,2013-11-04 17:16:00
8:36 AM,39.2,35.6,87,29.31,10.0,SSW,9.2,-,0.03,,Overcast,210,2013-11-04 17:36:00
8:56 AM,39.2,33.8,81,29.31,10.0,South,8.1,-,0.04,,Overcast,180,2013-11-04 17:56:00
9:16 AM,39.2,33.8,81,29.32,10.0,South,9.2,-,0.03,,Overcast,190,2013-11-04 18:16:00
9:36 AM,39.2,33.8,81,29.32,6.0,SW,13.8,-,0.05,,Overcast,220,2013-11-04 18:36:00
9:56 AM,39.2,33.8,81,29.33,8.0,SW,11.5,-,0.07,,Overcast,230,2013-11-04 18:56:00
10:16 AM,39.2,33.8,81,29.33,7.0,SW,11.5,-,N/A,,Overcast,230,2013-11-04 19:16:00
10:36 AM,39.2,33.8,81,29.34,5.0,SW,10.4,-,N/A,,Overcast,230,2013-11-04 19:36:00
10:56 AM,39.2,33.8,81,29.35,7.0,SW,10.4,-,0.01,,Overcast,230,2013-11-04 19:56:00
11:16 AM,39.2,33.8,81,29.35,7.0,SW,8.1,-,N/A,,Overcast,230,2013-11-04 20:16:00
11:36 AM,39.2,33.8,81,29.36,4.0,SW,11.5,-,N/A,,Overcast,230,2013-11-04 20:36:00
11:56 AM,41.0,35.6,81,29.36,10.0,SW,9.2,-,N/A,,Overcast,230,2013-11-04 20:56:00
12:16 PM,41.0,35.6,81,29.37,10.0,WSW,8.1,-,N/A,,Overcast,240,2013-11-04 21:16:00
12:36 PM,41.0,35.6,81,29.38,7.0,WSW,6.9,-,N/A,,Overcast,250,2013-11-04 21:36:00
12:56 PM,41.0,35.6,81,29.38,10.0,West,8.1,-,N/A,,Overcast,280,2013-11-04 21:56:00
1:16 PM,42.8,35.6,76,29.39,10.0,WNW,9.2,-,N/A,,Overcast,300,2013-11-04 22:16:00
1:36 PM,42.8,35.6,76,29.40,2.5,WNW,9.2,-,N/A,,Overcast,300,2013-11-04 22:36:00
1:56 PM,42.8,37.4,81,29.40,7.0,WNW,12.7,-,0.01,,Overcast,300,2013-11-04 22:56:00
2:16 PM,42.8,35.6,76,29.41,10.0,NNW,10.4,-,N/A,,Mostly Cloudy,330,2013-11-04 23:16:00
2:36 PM,44.6,37.4,76,29.42,10.0,NW,16.1,-,N/A,,Overcast,320,2013-11-04 23:36:00
2:56 PM,44.6,37.4,76,29.44,10.0,NW,17.3,20.7,N/A,,Mostly Cloudy,320,2013-11-04 23:56:00
3:16 PM,44.6,37.4,76,29.45,10.0,NW,15.0,-,N/A,,Mostly Cloudy,320,2013-11-05 00:16:00
3:36 PM,44.6,37.4,76,29.46,10.0,NW,16.1,-,N/A,,Overcast,320,2013-11-05 00:36:00
10:36 PM,39.2,28.4,65,29.73,10.0,NW,28.8,32.2,N/A,,Overcast,320,2013-11-05 07:36:00
10:56 PM,37.4,28.4,70,29.74,10.0,NW,27.6,36.8,N/A,,Overcast,310,2013-11-05 07:56:00
11:16 PM,37.4,28.4,70,29.76,10.0,NW,26.5,34.5,N/A,,Overcast,310,2013-11-05 08:16:00
11:36 PM,37.4,28.4,70,29.77,10.0,NW,25.3,36.8,N/A,,Overcast,310,2013-11-05 08:36:00
11:56 PM,37.4,28.4,70,29.79,10.0,NW,25.3,35.7,N/A,,Overcast,320,2013-11-05 08:56:00